SCP
0 0 0 0 0 0 0 0 0 0 0 0 0 0 0 0 0 0 0 0 0 0 0 0 0 0 0 0 0 0 0 0 0 0 0 0 0 0 0 0 0 0 0 0
0 0 0 0 0 0 0 0 0 0 0 0 0 0 0 0 0 0 0 0 0 0 0 0 0 0 0 0 0 0 0 0 0 0 0 0 0 0 0 0 0 0 0 0
0 0 0 0 0 0 0 0 0 0 0 0 0 0 0 0 0 0 0 0 0 0 0 0 0 0 0 0 0 0 0 0 0 0 0 0 0 0 0 0 0 0 0 0
0 0 0 0 0 0 0 0 0 0 0 0 0 0 0 0 0 0 0 0 0 0 0 0 0 0 0 0 0 0 0 0 0 0 0 0 0 0 0 0 0 0 0 0
0 0 0 0 0 0 0 0 0 0 0 0 0 0 0 0 0 0 0 0 0 0 0 0 0 0 0 0 0 0 0 0 0 0 0 0 0 0 0 0 0 0 0 0
0 0 0 0 0 0 0 0 0 0 0 0 0 0 0 0 0 0 0 0 0 0 0 0 0 0 0 0 0 0 0 0 0 0 0 0 0 0 0 0 0 0 0 0
0 0 0 0 0 0 0 0 0 0 0 0 0 0 0 0 0 0 0 0 0 0 0 0 0 0 0 0 0 0 0 0 0 0 0 0 0 0 0 0 0 0 0 0
0 0 0 0 0 0 0 0 0 0 0 0 0 0 0 0 0 0 0 0 0 0 0 0 0 0 0 0 0 0 0 0 0 0 0 0 0 0 0 0 0 0 0 0
0 0 0 0 0 0 0 0 0 0 0 0 0 0 0 0 0 0 0 0 0 0 0 0 0 0 0 0 0 0 0 0 0 0 0 0 0 0 0 0 0 0 0 0
0 0 0 0 0 0 0 0 0 0 0 0 0 0 0 0 0 0 0 0 0 0 0 0 0 0 0 0 0 0 0 0 0 0 0 0 0 0 0 0 0 0 0 0
0 0 0 0 0 0 0 0 0 0 0 0 0 0 0 0 0 0 0 0 0 0 0 0 0 0 0 0 0 0 0 0 0 0 0 0 0 0 0 0 0 0 0 0
0 0 0 0 0 0 0 0 0 0 0 0 0 0 0 0 0 0 0 0 0 0 0 0 0 0 0 0 0 0 0 0 0 0 0 0 0 0 0 0 0 0 0 0
0 0 0 0 0 0 0 0 0 0 0 0 0 0 0 0 0 0 0 0 0 0 0 0 0 0 0 0 0 0 0 0 0 0 0 0 0 0 0 0 0 0 0 0
0 0 0 0 0 0 0 0 0 0 0 0 0 0 0 0 0 0 0 0 0 0 0 0 0 0 0 0 0 0 0 0 0 0 0 0 0 0 0 0 0 0 0 0
0 0 0 0 0 0 0 0 0 0 0 0 0 0 0 0 0 0 0 0 0 0 0 0 0 0 0 0 0 0 0 0 0 0 0 0 0 0 0 0 0 0 0 0
0 0 0 0 0 0 0 0 0 0 0 0 0 0 0 0 0 0 0 0 0 0 0 0 0 0 0 0 0 0 0 0 0 0 0 0 0 0 0 0 0 0 0 0
0 0 0 0 0 0 0 0 0 0 0 0 0 0 0 0 0 0 0 0 0 0 0 0 0 0 0 0 0 0 0 0 0 0 0 0 0 0 0 0 0 0 0 0
0 0 0 0 0 0 0 0 0 0 0 0 0 0 0 0 0 0 0 0 0 0 0 0 0 0 0 0 0 0 0 0 0 0 0 0 0 0 0 0 0 0 0 0
0 0 0 0 0 0 0 0 0 0 0 0 0 0 0 0 0 0 0 0 0 0 0 0 0 0 0 0 0 0 0 0 0 0 0 0 0 0 0 0 0 0 0 0
0 0 0 0 0 0 0 0 0 0 0 0 0 0 0 0 0 0 0 0 0 0 0 0 0 0 0 0 0 0 0 0 0 0 0 0 0 0 0 0 0 0 0 0
0 0 0 0 0 0 0 0 0 0 0 0 0 0 0 0 0 0 0 0 0 0 0 0 0 0 0 0 0 0 0 0 0 0 0 0 0 0 0 0 0 0 0 0
0 0 0 0 0 0 0 0 0 0 0 0 0 0 0 0 0 0 0 0 0 0 0 0 0 0 0 0 0 0 0 0 0 0 0 0 0 0 0 0 0 0 0 0
0 0 0 0 0 0 0 0 0 0 0 0 0 0 0 0 0 0 0 0 0 0 0 0 0 0 0 0 0 0 0 0 0 0 0 0 0 0 0 0 0 0 0 0
0 0 0 0 0 0 0 0 0 0 0 0 0 0 0 0 0 0 0 0 0 0 0 0 0 0 0 0 0 0 0 0 0 0 0 0 0 0 0 0 0 0 0 0
0 0 0 0 0 0 0 0 0 0 0 0 0 0 0 0 0 0 0 0 0 0 0 0 0 0 0 0 0 0 0 0 0 0 0 0 0 0 0 0 0 0 0 0
0 0 0 0 0 0 0 0 0 0 0 0 0 0 0 0 0 0 0 0 0 0 0 0 0 0 0 0 0 0 0 0 0 0 0 0 0 0 0 0 0 0 0 0
0 0 0 0 0 0 0 0 0 0 0 0 0 0 0 0 0 0 0 0 0 0 0 0 0 0 0 0 0 0 0 0 0 0 0 0 0 0 0 0 0 0 0 0
Wind_Speed
9 8 6 7 8 8 9 11 10 10 10 8 6 6 4 3 1 1 1 1 1 1 1 1 1 1 1 1 2 3 4 5 5 5 5 5 5 5 5 5 6 6 6 6
7 6 5 7 8 9 9 10 11 10 10 5 5 4 3 2 1 1 1 1 2 2 2 2 2 2 2 1 2 2 3 4 3 4 5 5 5 5 5 5 5 5 6 6
6 5 5 6 6 7 7 7 8 9 6 5 5 5 5 3 3 3 3 3 3 3 3 3 3 2 2 2 2 2 3 3 3 4 4 4 4 5 5 5 5 5 6 6
4 3 6 1 3 4 4 2 2 4 5 5 6 6 5 3 4 4 5 5 4 4 3 3 3 3 2 2 2 2 2 2 2 3 4 4 4 5 5 5 5 5 6 6
3 5 5 3 4 5 4 3 4 5 6 6 6 3 1 3 4 5 6 6 5 4 3 3 3 2 2 1 1 2 2 1 2 2 3 4 4 5 4 4 5 5 5 6
3 4 4 3 7 8 4 3 6 7 6 6 4 3 2 5 6 6 6 5 5 3 3 2 2 2 1 1 1 1 1 1 2 2 3 3 4 4 4 4 4 4 4 5
4 4 3 5 8 5 2 4 7 7 6 5 4 4 6 6 6 6 5 5 4 3 2 2 2 1 1 1 1 1 1 1 1 2 2 2 2 3 3 3 3 3 3 3
3 4 3 6 4 3 5 7 6 6 6 5 6 6 6 6 6 6 6 5 4 3 2 2 2 1 0 1 1 1 0 0 1 1 1 1 1 2 2 3 3 3 3 2
2 2 3 3 4 5 6 6 6 6 6 5 5 5 5 6 6 6 6 6 4 4 4 3 2 1 1 2 2 1 0 0 0 0 0 0 1 1 1 2 2 2 2 2
2 2 5 5 6 6 6 6 6 6 5 4 4 5 5 5 5 6 6 6 5 4 4 5 4 3 2 2 2 1 1 1 1 1 0 1 1 0 1 1 1 2 2 2
3 4 5 5 7 8 7 6 5 5 5 5 4 4 5 4 5 5 5 5 5 5 4 5 5 5 5 3 2 1 1 1 1 1 1 1 1 1 0 1 1 2 2 2
3 4 5 6 7 8 6 6 6 5 6 6 5 5 5 4 4 5 5 5 5 6 6 6 6 6 6 5 3 2 2 2 1 1 1 1 1 2 3 2 3 3 2 2
5 5 5 5 6 6 6 6 6 5 5 5 5 5 5 4 5 5 6 6 6 6 6 6 6 6 7 6 4 4 3 3 2 2 1 1 1 1 2 3 3 3 3 3
5 4 3 4 5 6 6 6 5 5 5 5 5 5 5 5 5 6 6 6 6 5 6 6 6 7 7 6 5 4 4 3 3 2 1 1 1 1 1 1 2 2 2 2
6 5 3 3 4 5 5 5 5 6 6 6 6 5 5 5 6 6 6 6 5 6 6 6 7 7 7 6 5 4 3 3 2 2 2 2 2 1 1 1 1 2 2 2
6 5 4 5 5 6 6 6 6 6 6 6 6 6 6 5 5 5 6 6 6 7 7 6 6 7 6 6 5 4 3 4 4 2 2 2 2 2 2 2 2 2 2 3
5 6 6 6 6 7 6 6 5 5 5 5 6 6 5 5 5 6 6 6 6 6 6 6 6 6 6 6 5 3 3 4 4 3 2 2 2 2 2 2 2 2 3 3
4 4 4 4 4 5 6 6 6 6 5 5 5 5 5 5 5 6 6 6 6 6 6 6 6 6 6 6 4 3 3 3 3 3 2 2 2 2 2 2 3 3 3 3
6 5 5 5 5 4 5 5 5 5 5 5 5 5 5 5 5 5 5 5 6 6 6 7 8 6 6 6 5 3 3 3 3 3 3 3 3 3 3 3 3 3 4 4
6 6 6 6 5 5 5 5 5 5 5 5 4 4 5 5 5 5 5 5 4 4 6 6 6 5 5 6 6 3 3 3 3 3 3 3 3 3 3 3 3 4 4 4
7 6 6 6 6 6 5 5 5 5 5 5 4 4 5 5 5 4 4 4 5 6 6 7 5 5 5 5 6 3 3 3 3 3 3 3 3 3 3 4 4 4 4 4
6 6 6 6 6 6 6 5 5 5 5 5 5 5 4 5 5 4 4 3 5 7 6 5 4 6 7 7 4 4 4 4 3 3 3 3 4 4 4 4 4 4 5 5
5 5 5 5 5 5 6 5 5 5 5 5 5 5 4 4 4 4 4 4 5 8 6 5 7 9 9 5 4 4 4 4 4 4 4 4 4 4 5 5 5 5 5 5
6 6 5 5 5 5 6 6 5 4 5 5 4 4 4 4 4 3 4 7 9 9 6 7 10 10 9 4 4 4 4 4 4 4 4 4 4 4 5 5 5 5 6 7
5 5 5 5 5 4 5 6 6 5 5 4 4 5 4 3 4 5 5 6 8 9 6 7 10 10 6 4 4 4 4 4 5 5 5 5 5 5 5 5 5 6 6 6
5 4 4 4 4 4 4 4 4 4 5 5 5 4 4 4 5 5 5 6 7 8 6 5 6 6 4 4 4 5 4 5 5 5 5 5 5 5 5 5 7 6 6 6
5 4 4 4 4 4 4 4 4 5 5 5 6 6 5 5 5 5 6 5 5 5 5 5 5 4 4 4 4 4 4 4 5 5 5 5 5 5 5 6 5 5 5 5
Wind_Direction
274 282 273 264 261 244 234 241 249 259 261 276 298 307 308 314 332 8 13 18 15 1 358 358 354 330 293 251 218 206 203 203 207 207 205 204 203 202 200 201 202 201 201 201
275 273 272 280 273 260 253 252 253 263 270 313 316 326 320 323 332 324 324 326 334 333 321 315 316 310 296 270 237 211 205 204 204 204 201 202 203 201 200 203 204 204 204 203
268 286 282 266 271 255 246 250 255 258 279 325 321 315 308 307 307 305 307 307 306 303 301 296 293 284 273 264 233 212 208 204 203 204 203 202 200 200 201 203 203 206 207 206
264 262 239 278 1 303 256 255 300 311 318 310 303 299 295 302 321 323 321 312 303 301 300 301 300 292 279 253 214 203 203 206 204 203 208 206 202 204 205 204 205 209 209 209
242 249 261 294 347 323 270 263 1 324 320 330 326 305 273 346 335 319 312 310 302 293 287 287 290 290 279 240 213 196 203 211 215 212 210 206 205 209 209 205 209 213 212 211
238 250 257 345 340 322 271 249 2 336 323 327 327 284 309 341 328 325 326 324 315 302 289 284 297 289 269 234 213 217 226 234 233 220 214 214 213 213 210 207 209 210 215 217
248 251 268 347 331 323 244 319 334 319 313 317 304 314 330 334 332 331 333 335 332 323 308 311 317 300 255 246 245 255 245 234 231 227 224 226 221 211 202 198 199 204 211 220
251 248 276 355 355 347 327 326 322 318 320 322 330 336 340 342 342 346 349 354 354 359 3 355 348 341 334 313 315 305 266 230 234 241 222 216 203 191 194 193 192 196 201 218
274 291 344 345 337 329 327 323 324 324 326 329 336 341 347 349 351 356 359 1 4 13 21 18 11 7 13 351 350 35 72 71 297 342 227 177 180 181 185 191 190 194 201 213
285 306 327 337 341 338 334 329 328 330 333 344 348 350 354 359 1 4 6 8 11 21 28 18 16 23 19 5 8 51 85 80 77 93 87 92 108 160 186 195 200 205 206 220
289 313 327 343 349 344 345 348 353 358 1 3 6 1 1 1 5 9 11 12 17 22 25 16 16 22 17 13 22 44 54 66 69 66 76 81 68 34 319 280 251 247 239 231
294 313 308 313 333 341 348 355 359 4 8 10 11 7 7 10 14 16 19 22 25 26 27 19 21 23 17 15 24 43 43 37 43 41 43 48 56 40 35 21 17 351 328 297
308 319 318 318 337 351 356 360 3 7 8 9 12 14 21 22 23 25 28 29 27 26 26 24 26 24 18 16 26 37 36 26 30 38 41 30 26 39 31 34 38 18 3 350
349 345 341 351 351 356 3 8 13 18 18 17 16 22 29 29 27 26 24 21 22 25 25 25 27 22 13 15 24 30 30 27 22 19 16 10 6 3 9 14 1 360 2 357
357 1 357 355 4 8 9 14 23 22 20 20 22 25 27 25 23 19 16 17 21 24 22 22 22 16 9 11 18 21 20 20 19 16 10 5 2 1 1 2 349 341 347 358
350 8 19 19 13 9 11 15 16 11 10 13 16 16 17 19 19 18 18 19 21 18 12 12 13 5 3 5 9 15 22 22 10 8 9 5 3 4 357 354 348 340 339 338
3 4 2 2 2 4 8 8 4 359 0 7 8 8 12 16 17 18 17 16 17 11 5 6 5 2 3 3 3 5 9 12 9 3 4 3 0 356 348 342 337 331 327 329
360 351 349 347 349 355 1 3 1 0 2 4 5 8 12 12 9 5 5 7 11 12 11 10 4 358 0 1 359 357 357 358 358 355 354 357 352 343 333 324 319 315 317 323
5 7 7 5 358 357 358 358 358 359 359 3 8 6 4 3 3 1 1 4 4 1 0 0 357 358 358 357 352 348 349 349 348 347 345 341 336 331 326 320 315 312 311 311
5 5 6 5 4 3 358 355 357 357 358 1 4 3 2 360 358 356 358 358 354 345 340 344 345 347 348 347 345 342 345 340 335 332 331 328 325 321 318 315 311 308 306 304
355 356 358 358 358 358 357 356 357 357 356 359 359 355 351 348 348 348 347 346 348 345 341 340 342 341 341 338 336 335 334 332 329 325 323 318 315 314 313 311 308 305 305 304
347 347 348 351 353 352 353 353 353 352 352 353 351 347 344 342 341 340 339 327 330 335 335 332 333 335 335 332 329 330 328 323 319 316 314 312 310 309 309 309 306 304 301 299
339 341 344 345 344 342 344 348 349 347 345 343 339 336 334 328 326 322 324 331 329 328 327 325 327 327 328 327 324 322 319 316 312 308 306 304 302 300 299 300 299 299 298 298
339 342 341 340 341 344 344 342 340 337 334 329 328 326 323 320 319 316 308 315 322 321 318 320 324 324 324 320 315 312 309 306 304 302 300 297 295 294 293 294 295 297 296 296
336 337 339 340 340 337 334 333 333 332 331 330 330 331 326 318 310 311 312 312 317 319 314 316 320 322 318 307 305 302 301 299 300 299 294 294 294 293 293 293 293 294 294 293
334 332 330 329 325 324 325 327 327 327 327 326 326 326 322 318 312 308 307 309 311 313 312 309 310 312 306 302 299 298 296 298 299 297 296 295 293 293 292 293 294 293 294 294
333 330 327 328 332 333 328 325 322 322 322 318 314 316 317 317 315 315 314 311 312 311 308 305 304 301 299 298 296 293 292 291 291 291 291 289 289 288 289 290 291 292 294 293